Powrót do katalogu

FREGAT DEB

AktywnyUNKNOWN
NORAD 45820·DEBRIS·🇷🇺 Russia

Wystrzelony Jul 18, 2011 z Baikonur Cosmodrome

Loading…

Następne Przeloty (najbliższe 24 godziny)

TLE

ŚwieżeSource: Space-Track

Epoka: Sep 14, 2026, 02:49 UTC

1 45820U 11037BE  26257.11802920  .00002351  00000-0  15048-2 0  9997
2 45820  51.5233 159.3506 1485401 208.2243 142.9688 11.77700332263980

Śledź FREGAT DEB w czasie rzeczywistym z AllMySat

Download on the App Store